TimeEST,TemperatureF,Dew PointF,Humidity,Sea Level PressureIn,VisibilityMPH,Wind Direction,Wind SpeedMPH,Gust SpeedMPH,PrecipitationIn,Events,Conditions,WindDirDegrees,DateUTC
12:53 AM,26.1,24.1,92,30.09,10.0,Calm,Calm,-,N/A,,Overcast,0,2013-02-26 05:53:00
1:53 AM,26.1,24.1,92,30.11,10.0,Calm,Calm,-,N/A,,Mostly Cloudy,0,2013-02-26 06:53:00
2:42 AM,17.6,17.6,100,30.08,1.8,Calm,Calm,-,N/A,,Mostly Cloudy,0,2013-02-26 07:42:00
2:51 AM,17.6,15.8,93,30.08,3.0,Calm,Calm,-,N/A,,Mostly Cloudy,0,2013-02-26 07:51:00
2:53 AM,19.0,17.1,92,30.13,5.0,Calm,Calm,-,N/A,,Mostly Cloudy,0,2013-02-26 07:53:00
3:53 AM,21.9,21.9,100,30.11,10.0,Calm,Calm,-,N/A,,Overcast,0,2013-02-26 08:53:00
4:53 AM,16.0,15.1,96,30.12,10.0,Calm,Calm,-,N/A,,Mostly Cloudy,0,2013-02-26 09:53:00
5:53 AM,19.0,17.1,92,30.12,10.0,Calm,Calm,-,N/A,,Clear,0,2013-02-26 10:53:00
6:53 AM,18.0,17.1,96,30.10,10.0,NNE,4.6,-,N/A,,Clear,30,2013-02-26 11:53:00
7:53 AM,19.0,17.1,92,30.11,10.0,ENE,3.5,-,N/A,,Clear,70,2013-02-26 12:53:00
8:53 AM,25.0,21.9,88,30.11,10.0,ENE,5.8,-,N/A,,Clear,60,2013-02-26 13:53:00
9:53 AM,28.4,24.8,86,30.07,10.0,ENE,5.8,-,N/A,,Clear,70,2013-02-26 14:53:00
10:03 AM,28.4,24.8,86,30.08,10.0,East,6.9,-,N/A,,Partly Cloudy,80,2013-02-26 15:03:00
10:53 AM,30.9,27.0,85,30.11,10.0,NE,6.9,-,N/A,,Clear,50,2013-02-26 15:53:00
11:53 AM,33.1,27.0,78,30.10,10.0,ESE,10.4,-,N/A,,Clear,110,2013-02-26 16:53:00
12:53 PM,33.1,25.0,72,30.08,10.0,ESE,12.7,-,N/A,,Mostly Cloudy,110,2013-02-26 17:53:00
1:53 PM,32.0,27.0,82,30.07,10.0,ESE,11.5,-,N/A,,Overcast,110,2013-02-26 18:53:00
2:53 PM,32.0,24.1,73,30.05,10.0,East,15.0,-,N/A,,Overcast,90,2013-02-26 19:53:00
3:53 PM,32.0,24.1,73,30.04,10.0,East,11.5,-,N/A,,Overcast,100,2013-02-26 20:53:00
4:53 PM,30.9,23.0,72,30.04,10.0,East,10.4,-,N/A,,Overcast,100,2013-02-26 21:53:00
5:53 PM,30.9,24.1,76,30.04,10.0,East,9.2,17.3,N/A,,Overcast,80,2013-02-26 22:53:00
6:53 PM,30.0,23.0,75,30.03,10.0,ENE,10.4,-,N/A,,Overcast,60,2013-02-26 23:53:00
7:53 PM,30.0,23.0,75,30.04,10.0,ENE,8.1,-,N/A,,Overcast,70,2013-02-27 00:53:00
8:53 PM,30.0,24.1,79,30.03,10.0,East,9.2,-,N/A,,Overcast,80,2013-02-27 01:53:00
9:53 PM,30.0,24.1,79,30.00,10.0,ENE,8.1,-,N/A,,Overcast,70,2013-02-27 02:53:00
10:53 PM,30.0,24.1,79,29.99,10.0,ENE,10.4,-,N/A,,Overcast,60,2013-02-27 03:53:00
11:53 PM,30.0,24.1,79,29.97,10.0,ENE,9.2,-,N/A,,Overcast,60,2013-02-27 04:53:00